Ketchikan, AK

10:03 AM AKST on November 13, 2018 (GMT -0900)
Ketchikan International

Weather History for PAKT - March, 2018

Change the Weather History Date:

Friday, March 9, 2018

  Actual Average Record
Temperature  
Mean Temperature 38 °F -  
Max Temperature 42 °F 43 °F 57 °F (1965)
Min Temperature 35 °F 32 °F 6 °F (2002)
Degree Days  
Heating Degree Days 26    
Moisture  
Dew Point 35 °F    
Average Humidity 90    
Maximum Humidity 97    
Minimum Humidity 76    
Precipitation  
Precipitation 0.34 in - - ()
Sea Level Pressure  
Sea Level Pressure 29.70 in    
Wind  
Wind Speed 13 mph (SE)    
Max Wind Speed 24 mph    
Max Gust Speed 32 mph    
Visibility 6 miles    
Events Rain , Snow    
Averages and records for this station are not official NWS values.
T = Trace of Precipitation, MM = Missing Value Source: NWS Daily Summary

Daily Weather History Graph

Daily Weather History Graph

Search for Another Location

Airport or City:

Astronomy

Mar. 09, 2018 Rise Set
Actual Time 6:16 AM AKST 5:38 PM AKST
Civil Twilight 5:40 AM AKST 6:15 PM AKST
Nautical Twilight 4:57 AM AKST 6:57 PM AKST
Astronomical Twilight 4:14 AM AKST 7:41 PM AKST
Moon 1:47 AM AKST (3/9) 10:04 AM AKST (3/9)
Length of Visible Light 12h 35m
Length of Day
11h 22m
Waning Gibbous, 46% of the Moon is Illuminated
Mar 9
Waning Gibbous
Mar 17
New
Mar 24
First Quarter
Mar 31
Full
Apr 7
Last Quarter

Hourly Weather History & Observations

Time (AKST) Temp. Windchill Dew Point Humidity Pressure Visibility Wind Dir Wind Speed Gust Speed Precip Events Conditions
12:53 AM 37.0 °F 31.6 °F 30.0 °F 76% 29.68 in 10.0 mi SSE 6.9 mph - N/A   Overcast
1:17 AM 37.0 °F 28.9 °F 33.1 °F 86% 29.68 in 10.0 mi SE 12.7 mph - N/A   Overcast
1:53 AM 37.0 °F 28.1 °F 33.1 °F 86% 29.67 in 10.0 mi SE 15.0 mph - N/A   Overcast
2:53 AM 37.9 °F 29.6 °F 33.1 °F 83% 29.67 in 9.0 mi SSE 13.8 mph - 0.00 in   Overcast
3:53 AM 37.0 °F 28.1 °F 33.1 °F 86% 29.66 in 10.0 mi SE 15.0 mph - 0.01 in Rain Light Rain
4:17 AM 37.0 °F 28.5 °F 34.0 °F 89% 29.65 in 9.0 mi SSE 13.8 mph 21.9 mph 0.00 in Rain Light Rain
4:53 AM 36.0 °F 25.0 °F 34.0 °F 93% 29.65 in 7.0 mi SE 20.7 mph 28.8 mph 0.02 in Snow Light Snow
5:16 AM 36.0 °F 24.4 °F 33.1 °F 89% 29.64 in 6.0 mi SE 23.0 mph 32.2 mph 0.01 in   Overcast
5:28 AM 36.0 °F 24.7 °F 33.1 °F 89% 29.63 in 4.0 mi SE 21.9 mph 29.9 mph 0.02 in Snow Light Snow
5:47 AM 35.6 °F 23.7 °F 33.8 °F 93% 29.63 in 2.5 mi SE 24.2 mph 31.1 mph 0.03 in Snow Light Snow
5:53 AM 36.0 °F 24.4 °F 33.1 °F 89% 29.64 in 2.0 mi SE 23.0 mph 31.1 mph 0.04 in Snow Light Snow
6:06 AM 35.6 °F 24.8 °F 33.8 °F 93% 29.63 in 3.0 mi SE 19.6 mph 29.9 mph N/A Snow Light Snow
6:53 AM 35.6 °F 25.2 °F 33.8 °F 93% 29.64 in 2.0 mi SE 18.4 mph - N/A Snow Light Snow
7:28 AM 35.6 °F 25.2 °F 33.8 °F 93% 29.63 in 3.0 mi SSE 18.4 mph 27.6 mph N/A Snow Light Snow
7:53 AM 35.6 °F 25.9 °F 33.8 °F 93% 29.64 in 3.0 mi SE 16.1 mph 28.8 mph N/A Snow Light Snow
8:53 AM 37.4 °F 28.9 °F 33.8 °F 87% 29.64 in 4.0 mi SSE 13.8 mph 21.9 mph N/A Rain Light Rain
9:53 AM 37.4 °F 28.2 °F 35.6 °F 93% 29.66 in 5.0 mi SSE 16.1 mph 24.2 mph N/A Rain Light Rain
10:53 AM 39.2 °F 30.2 °F 35.6 °F 87% 29.67 in 4.0 mi SE 17.3 mph - N/A Rain Rain
11:53 AM 37.4 °F 28.2 °F 35.6 °F 93% 29.68 in 3.0 mi SE 16.1 mph - N/A Rain Rain
12:53 PM 42.8 °F 35.4 °F 39.2 °F 87% 29.69 in 3.0 mi SE 15.0 mph 24.2 mph N/A Rain Light Rain
1:53 PM 42.8 °F 37.0 °F 39.2 °F 87% 29.70 in 5.0 mi SE 10.4 mph - N/A Rain Light Rain
2:53 PM 42.8 °F 38.0 °F 39.2 °F 87% 29.72 in 8.0 mi SE 8.1 mph - N/A Rain Light Rain
3:53 PM 42.8 °F 39.3 °F 39.2 °F 87% 29.73 in 10.0 mi SE 5.8 mph - N/A Rain Light Rain
4:53 PM 41.0 °F 37.1 °F 37.4 °F 87% 29.74 in 10.0 mi SE 5.8 mph - N/A Rain Light Rain
5:53 PM 39.2 °F 33.0 °F 37.4 °F 93% 29.75 in 10.0 mi SSE 9.2 mph - N/A Rain Light Rain
6:53 PM 39.9 °F 35.8 °F 37.9 °F 93% 29.77 in 7.0 mi SSE 5.8 mph - 0.06 in Rain Light Rain
7:53 PM 39.0 °F 30.6 °F 37.0 °F 93% 29.79 in 10.0 mi ESE 15.0 mph - 0.04 in Rain Light Rain
8:53 PM 39.0 °F 33.4 °F 37.0 °F 93% 29.80 in 10.0 mi SE 8.1 mph - 0.01 in Rain Light Rain
9:19 PM 39.0 °F 31.8 °F 36.0 °F 89% 29.80 in 10.0 mi SE 11.5 mph - 0.00 in Rain Light Rain
9:53 PM 37.9 °F 32.1 °F 36.0 °F 93% 29.81 in 10.0 mi SSE 8.1 mph - 0.01 in Rain Light Rain
10:53 PM 37.9 °F 34.4 °F 36.0 °F 93% 29.82 in 6.0 mi Variable 4.6 mph - 0.05 in Rain Light Rain
11:53 PM 37.9 °F - 37.0 °F 97% 29.82 in 4.0 mi Calm Calm - 0.10 in Rain Light Rain